sat.trackr.live / text

‹ back to catalog

TIANZHOU-10

NORAD 69049 · 2026-102A

PAYLOAD ACTIVE UNKNOWN

§ Identity

Operator
Country
PRC
Launch date
2026-05-11
Launch site
WSC
Launch vehicle
Mass (kg)
RCS (m²)

Purposes: station

External: N2YO · Heavens-Above · Gunter

§ Orbital elements

Epoch: 2026-05-24T22:25:35.020704Z

Period
92.32 min
Inclination
41.4678°
Eccentricity
0.0011057
Mean motion
15.59794200 rev/d
Perigee alt
380.8 km
Apogee alt
395.7 km
Semi-major
6,766.4 km
B*
1.7335e-4
RAAN
103.4027°
Arg perigee
275.7252°
Mean anomaly
84.2326°
Rev number
28,954

§ Raw data

TIANZHOU-101 69049U 26102A   26144.93443311  .00014030  00000+0  17335-3 0  99932 69049  41.4678 103.4027 0011057 275.7252  84.2326 15.59794200289546

JSON: /api/v1/satellites/69049 · /tle

For live sub-satellite position, see the globe view (requires WebGL).

§ Visibility from observer

Set your observer location to see the next 7 days of passes ≥ 10°. The values pass through the URL so the page stays shareable.

No JS? Fill the form by hand. The geolocation button needs JavaScript.